Погода Есенгылы

Погода Есенгылы : погода сейчас, прогноз погоды и архив. Всё, что Вы хотите узнать о погоде Есенгылы!

Хотите узнать прогноз погоды Есенгылы? Тогда Вам сюда: Погода Есенгылы

Поиск расширенной информации на нашем сайте:

Другие новости

Новости СМИ2

Главная страница сайта

Новости сайта

03.07.2017

Напоминаем, что на нашем специализированном сайте Метеоцентр.Азия вы можете получить высокодетализированные автоматические прогнозы погоды по пунктам России, СНГ и мира в авиационном формате (включающие направление и скорость ветра, видимость, явления погоды, количество и форму облачности, нижнюю и верхнюю границу облачности).


Погода Есенгылы - сегодня

Время (UTC), дата Ветер
(°,м/с) 
Видим.   Явления Облачность Т
(°С)
Тd
(°С)
f(%) Тe
(°С)
Pmin
(гПа)
dP
(гПа)
Po
(мм)
O2
(г/м3)
Тmin Tmax R s Состояние
почвы
21 21.11.17 180 (Ю) 10 км    3/0 верхняя 
[Ci fib]
+14 +4 51 +15  1003.5  -1.4  755  289           
00 22.11.17 180 (Ю) 10 км    4/0 верхняя 
[Ci fib]
+14.5 +4.6 51 +15  1003.5  755  288           
03 22.11.17 250 (З) 10 км    8/0 верхняя 
[Ci fib]
+15.5 +9.5 67 +16  1003.1  -0.4  754  286           
06 22.11.17 300 (СЗ) 10 км    ясно 
+20.6 +15.2 71 +29  1004.4  1.2  755  280  +13.9         
09 22.11.17 360 (С) 10 км    ясно 
+25 +8.2 34 +25  1005.2  0.8  756  278           
12 22.11.17 360 (С) 10 км    3/0 верхняя 
[Ci fib]
+24.4 +5.3 29 +24  1005.8  0.6  756  279           
15 22.11.17 030 (СВ) 10 км    ясно 
+18.9 +11.9 64 +24  1007.7  1.9  758  283    +25.3       
18 22.11.17 360 (С) 10 км    ясно 
+15.5 +13.9 90 +22  1008.9  1.3  759  286    +25.3       
21 22.11.17 010 (С) 10 км    ясно 
+15.2 +12.6 84 +18  1010.4  1.5  760  288           
00 23.11.17 050 (СВ) 10 км    ясно 
+12.7 +10 84 +13  1011.4  761  291           
03 23.11.17 040 (СВ) 10 км    8/8 600 м 
[Sc]
+11.4 +9.8 90 +12  1009.5  -1.9  759  292           
06 23.11.17 360 (С) 10 км    5/0 средняя 
[Ac trans]
+14.1 +10.5 79 +16  1012  2.5  761  290  +11.3         
09 23.11.17 270 (З) 10 км    10/10 600 м 
[Sc]
+15.3 +9.8 70 +16  1012.9  0.9  762  289           
12 23.11.17 280 (З) 4000 м  слаб. дождь  10/10 300 м 
[Frnb|Ns]
+14.1 +10.5 79 +16  1012.9  762  290           
15 23.11.17 140 (ЮВ) 10 км    10/10 600 м 
+13.5 +10.9 84 +17  1015  2.1  763  291    +15.8     
18 23.11.17 360 (С) 10 км    10/10 600 м 
[Sc]
+12.8 +11.3 91 +17  1015.6  0.6  764  292    +15.8     
21 23.11.17 030 (СВ) 10 км    10/10 600 м 
[Sc]
+12.9 +10.6 86 +16  1015.4  -0.2  764  292           
00 24.11.17 030 (СВ) 10 км    10/10 600 м 
[Sc]
+11.7 +9.9 89 +12  1015.4  -0.2  764  293           
03 24.11.17 070 (В) 10 км    10/10 600 м 
[Sc]
+10.7 +9.3 91 +12  1016.2  0.8  764  295           
06 24.11.17 100 (В) 10 км    10/10 600 м 
[Sc]
+11.6 +9.7 88 +13  1016  -0.2  764  294  +10.6         
09 24.11.17 350 (С) 10 км    10/10 600 м 
[Sc]
+14.7 +11 78 +17  1015.3  -0.7  764  290           
12 24.11.17 360 (С) 4000 м  слаб. дождь  10/10 300 м 
[Frnb|Ns]
+12.4 +11.7 95 +14  1016.2  0.9  764  292        598   
15 24.11.17 010 (С) 10 км    10/10 600 м 
[Sc]
+10.7 +8 83 +11  1018.3  2.1  766  296    +14.8     
18 24.11.17 180 (Ю) 10 км    8/8 600 м 
[Sc]
+9.9 +7.8 87 +9  1019.2  0.9  767  297    +14.8     
21 24.11.17 250 (З) 10 км    10/10 600 м 
[Sc]
+8.8 +7.6 92 +9  1018.5  -0.7  766  298           
Время (UTC), дата Ветер
(°,м/с) 
Видим.   Явления Облачность Т
(°С)
Тd
(°С)
f(%) Тe
(°С)
Pmin
(гПа)
dP
(гПа)
Po
(мм)
O2
(г/м3)
Тmin Tmax R s Состояние
почвы

Для получения пояснительной информации подведите курсор к названию столбца.

ПОГОДА Есенгылы - архив

Всё, что Вы хотите узнать о погоде Есенгылы - удобно и подробно!

Выберите нужную дату (начиная с 1 января 2015* года) и нажмите кнопку "Найти".
Будут отображены архивные сводки погоды по пункту Есенгылы, начиная с указанной даты.


Отображать данные в формате CSV (для использования в таблицах Excel)


Внимание! Наш архив погоды предназначен исключительно для личного некоммерческого использования в познавательных целях. Если Вам необходимы официальные справки о состоянии погоды (для производственных, юридических, коммерческих и т.п. целей), обращайтесь в органы Росгидромета.

*Примечание: данная дата относится к архиву по метеостанциям СССР (Россия, СНГ, Балтия).
Архив по метеостанциям Зарубежной Европы и Азии (кроме Китая) хранится 10 дней, по другим регионам земного шара (Китай, Африка, Америка, Австралия, Океания) - 1 день.

Есенгылы - район местоположения метеостанции


Название, широта, долгота, высота метеостанции:
Есенгылы 37.5°ш. 53.6°д. -22 м над ур. моря [Туркменистан]

Дополнительная информация

В oтличие oт бoльшинства пoгoдных сайтoв мы публикуем пoдрoбную метеoинфoрмацию в детальнoм прoфессиoнальнoм фoрмате.

Характеристики температуры и влажнoсти вoздуха измеряются на высoте 2 м в тени вдали oт зданий и деревьев.
Скoрoсть ветра измеряется на высoте 10 м (на урoвне рoста челoвека скoрoсть ветра ниже в 1.5-2 раза). Если метеoстанция нахoдится в гoрoде или в лесу, тo скoрoсть ветра занижена на 2-4 м/с пo сравнению с oткрытым местoм. Скoрoсть ветра над акватoриями крупных рек и oзёр, а также на вершинах хoлмoв на 2-5 м/с выше, чем в oбычных услoвиях.
Атмoсфернoе давление в разных тoчках местнoсти мoжет значительнo oтличаться oт давления на метеoстанции, в зависимoсти oт услoвий рельефа (при пoдъёме на 10 м давление пoнижается примернo на 1 мм рт.ст.).